Flag Weather past 2 weeks in Aarhus, Denmark

Now
46 °F

Passing clouds.


Feels Like: 41 °F
Forecast: 44 / 49 °F
Wind: 10 mph from South

Location: Tirstrup

Current Time: Nov 23, 2014 at 9:26:18 PM

Latest Report: Nov 23, 2014 at 8:50 PM


Visibility: 4 mi

Pressure: 29.98 "Hg

Humidity: 82%

Dew point: 41 °F

Location of AarhusLocation

Historic Weather in Aarhus — Graph

°F

Aarhus temperature yesterday

Maximum temperature yesterday: 46 °F (at 11:20 AM)
Minimum temperature yesterday: 39 °F (at 12:20 AM)
Average temperature yesterday: 43 °F

Past Weeks' High & Low Weather Summary

 TemperatureHumidityPressure
High54 °F (Nov 9, 12:50 PM)94% (Nov 10, 11:50 AM)30.42 "Hg (Nov 10, 11:50 AM)
Low39 °F (Nov 21, 9:20 PM)66% (Nov 18, 3:50 PM)29.74 "Hg (Nov 10, 1:50 PM)
Average47 °F83%30.03 "Hg
* Reported Nov 8 8:20 PM — Nov 23 8:20 PM, Aarhus, Weather by CustomWeather, © 2014

Note: Actual official high and low records may vary slightly from our data, if they occured in-between our weather recording intervals... More about our weather records

Advertising

Aarhus weather history for previous 24 hours

 ConditionsComfort  
Time TempWeatherWind HumidityBarometerVisibility
8:20 PM
Nov 23
46 °FPassing clouds.10 mph82%29.98 "Hg4 mi
7:50 PM46 °FLow clouds.13 mph82%30.01 "Hg4 mi
7:20 PM46 °FLow clouds.13 mph82%29.98 "Hg4 mi
6:50 PM46 °FLow clouds.15 mph82%30.01 "Hg4 mi
6:20 PM46 °FLow clouds.13 mph82%30.01 "Hg4 mi
5:50 PM46 °FLow clouds.13 mph82%30.04 "Hg3 mi
4:20 PM45 °FLow clouds.13 mph87%30.07 "Hg4 mi
3:50 PM45 °FLow clouds.12 mph81%30.07 "Hg4 mi
3:20 PM45 °FLow clouds.10 mph81%30.09 "Hg4 mi
2:50 PM46 °FLow clouds.13 mph76%30.09 "Hg4 mi
2:20 PM46 °FLow clouds.10 mph76%30.09 "Hg4 mi
1:50 PM46 °FLow clouds.10 mph76%30.12 "Hg4 mi
1:20 PM46 °FPartly sunny.9 mph82%30.12 "Hg4 mi
12:50 PM45 °FPartly sunny.10 mph81%30.12 "Hg4 mi
12:20 PM45 °FLow clouds.9 mph81%30.15 "Hg4 mi
11:50 AM45 °FSprinkles. Partly sunny.10 mph81%30.15 "Hg4 mi
11:20 AM45 °FPartly sunny.10 mph81%30.18 "Hg4 mi
10:50 AM45 °FPartly sunny.9 mph81%30.18 "Hg5 mi
10:20 AM45 °FLow clouds.8 mph81%30.18 "Hg5 mi
9:50 AM45 °FLight rain. Overcast.12 mph81%30.18 "Hg4 mi
9:20 AM45 °FPartly sunny.10 mph81%30.18 "Hg5 mi
8:50 AM45 °FOvercast.12 mph81%30.18 "Hg5 mi
8:20 AM45 °FPartly sunny.10 mph81%30.18 "Hg5 mi
7:50 AM45 °FPassing clouds.9 mph81%30.18 "Hg6 mi
7:20 AM45 °FPassing clouds.9 mph81%30.15 "Hg5 mi
6:50 AM45 °FPassing clouds.10 mph81%30.15 "Hg4 mi
6:20 AM45 °FLow clouds.9 mph81%30.15 "Hg4 mi
5:50 AM45 °FLow clouds.9 mph81%30.18 "Hg3 mi
5:20 AM45 °FLow clouds.9 mph81%30.18 "Hg4 mi
4:50 AM45 °FOvercast.9 mph81%30.18 "Hg5 mi
4:20 AM45 °FPassing clouds.8 mph81%30.18 "Hg5 mi
3:50 AM43 °FPassing clouds.9 mph87%30.18 "Hg4 mi
3:20 AM43 °FSprinkles. Passing clouds.8 mph87%30.18 "Hg4 mi
2:50 AM43 °FSprinkles. Overcast.9 mph87%30.18 "Hg4 mi
2:20 AM43 °FDrizzle. Fog.8 mph87%30.21 "Hg3 mi
1:50 AM43 °FOvercast.9 mph87%30.21 "Hg4 mi
1:20 AM43 °FPassing clouds.7 mph87%30.21 "Hg5 mi
12:50 AM43 °FPassing clouds.7 mph87%30.21 "Hg4 mi
12:20 AM43 °FDrizzle. Fog.8 mph87%30.21 "Hg2 mi
11:50 PM
Nov 22
43 °FLight rain. Fog.7 mph87%30.21 "Hg2 mi
11:20 PM43 °FDrizzle. Fog.8 mph81%30.21 "Hg2 mi
10:50 PM43 °FDrizzle. Low clouds.9 mph81%30.21 "Hg4 mi
10:20 PM43 °FDrizzle. Low clouds.9 mph81%30.21 "Hg4 mi
9:50 PM43 °FDrizzle. Overcast.9 mph81%30.21 "Hg3 mi
9:20 PM43 °FDrizzle. Overcast.7 mph81%30.21 "Hg6 mi
Weather by CustomWeather, © 2014

See weather overviewHow to use our weather pages